COMPLETED DISPATCHED CALLS FOR SERVICE

Welcome to the Jacksonville Sheriff’s Office Completed Dispatched Calls for Service webpage. This page displays calls for service made to the Jacksonville Sheriff's Office that have recently been completed. The data on this page is refreshed automatically.

This information is not intended to be used as official crime data. This program does not provide information about all crimes, and excludes specific incidents such as sexual assaults and child abuse.

Disclaimer: The Jacksonville Sheriff's Office makes every effort to produce and publish current and accurate information. No warranties, expressed or implied, are provided for the data herein, its use, or its interpretation. The services provided are for informational purposes only and should not be relied on for any type of legal action.

Last refreshed 6/23 07:47:13

Incident # Dispatched Block Address Signal Call Description  
180623425136 6-23 07:21 500 S LANE AVE 63 DISPUTE
180623425179 6-23 07:20 5500 FT CAROLINE RD 13 SUSPICIOUS PERSON
180623425125 6-23 07:18 9800 103RD ST 2 63 DISPUTE IMPAIRED/INTOXICATED
180623425171 6-23 07:11 2700 LYDIA ST 63 DISPUTE
180623425158 6-23 07:01 14600 DUVAL RD 63 DISPUTE
180623425166 6-23 06:59 ATLANTIC BLVD AND LEON RD 1050 TRAFFIC STOP
180623425164 6-23 06:52 CASSAT AVE AND E I10 EXPWY 1050 TRAFFIC STOP
180623425154 6-23 06:41 9600 NEAL DR 1066 CANCEL
180623425153 6-23 06:40 10100 103RD ST 76 ASSIST OTHER AGENCY
180623425148 6-23 06:39 E I10 EXPWY AND S CHAFFEE RD 96 ASSIST MOTORIST
180623425145 6-23 06:23 N I295 EXPWY AND BAYMEADOWS RD 16 ROAD OBSTRUCTION
180623425144 6-23 06:15 2900 CORONET LN 63 DISPUTE
180623425139 6-23 06:10 200 SANWICK DR 60 SUICIDE OR ATTEMPT
180623425137 6-23 06:06 14600 DUVAL RD 63 DISPUTE
180623425129 6-23 05:52 5800 EDENFIELD RD 13 SUSPICIOUS PERSON
180623425123 6-23 05:42 1600 BOULEVARD 2 63 DISPUTE IMPAIRED/INTOXICATED
180623425117 6-23 05:39 900 N EDGEWOOD AVE 63 DISPUTE
180623425119 6-23 05:38 1400 MANOTAK AVE 33 DISCHARGING OF FIREARM
180623425121 6-23 05:37 400 SANWICK DR 0 13 ARMED SUSPICIOUS PERSON
180623425120 6-23 05:30 9500 REGENCY SQUARE BLVD 13 SUSPICIOUS PERSON
180623425114 6-23 05:27 3000 N MAIN ST 0 63 ARMED DISPUTE
180623425116 6-23 05:26 N I95 EXPWY AND BUSCHEXIT N I95 RP 1050 TRAFFIC STOP
180623425115 6-23 05:25 8600 BEACH BLVD 13 SUSPICIOUS PERSON
180623425113 6-23 05:22 3000 COLLEGE ST 0 60 SUICIDE THREAT W/WEAPON
180623425111 6-23 05:19 3500 EMERSON ST 76 ASSIST OTHER AGENCY
180623425090 6-23 05:18 1600 BOULEVARD 6388 DISPUTE WITH ASSAULT
180623425105 6-23 05:08 600 JESSIE ST 2288 DOMESTIC DISPUTE WITH/ASSAULT
180623425103 6-23 05:02 800 N LANE AVE 76 ASSIST OTHER AGENCY
180623425100 6-23 05:00 2100 MAYPORT RD 60 SUICIDE OR ATTEMPT
180623425097 6-23 04:55 I95/PHIL 96 ASSIST MOTORIST
180623425096 6-23 04:55 8200 METTO RD 13 SUSPICIOUS PERSON
180623425092 6-23 04:50 W BEAVER ST AND N PEARL ST 76 ASSIST OTHER AGENCY
180623425088 6-23 04:48 6200 SUNDOWN DR 63 DISPUTE
180623425089 6-23 04:48 500 STOCKTON ST 76 ASSIST OTHER AGENCY
180623425084 6-23 04:43 SOUTEL DR AND DEVONSHIRE BLVD 61 FIGHT
180623425083 6-23 04:39 7400 N SHARBETH DR 22 DOMESTIC
180623425081 6-23 04:38 1900 N LIBERTY ST 14RP VANDALISM RESIDENCE IN PROGRESS
180623425078 6-23 04:32 N I295 EXPWY AND PULASKI RD 96 ASSIST MOTORIST
180623425061 6-23 04:30 400 N SPRINGFIELD CT 14 VANDALISM
180623425069 6-23 04:29 13400 GRAN BAY PKWY 63 DISPUTE
180623425074 6-23 04:27 11900 ATLANTIC BLVD 96 ASSIST MOTORIST
180623425068 6-23 04:22 12700 HOOD LANDING RD 33 DISCHARGING OF FIREARM
180623425072 6-23 04:20 2100 MAYPORT RD 76 ASSIST OTHER AGENCY
180623425070 6-23 04:20 10200 W BEAVER ST 2 22 DOMESTIC DISTURBANCE
180623425036 6-23 04:15 8200 DIX ELLIS TRL 63 DISPUTE
180623425066 6-23 04:14 6900 103RD ST 9J THEFT JUST OCCURRED
180623425065 6-23 04:12 1300 N BROAD ST 63 DISPUTE
180623425064 6-23 04:12 7100 LINDA DR 63 DISPUTE
180623425063 6-23 04:10 2900 DUNN AVE 21B BURGLARY BUSINESS
180623425062 6-23 04:07 1000 N LANE AVE 63 DISPUTE
180623425059 6-23 04:06 CANAL ST AND KINGSTON ST 0 63 ARMED DISPUTE
180623425060 6-23 04:05 ROOSEVELT/PARK 1050 TRAFFIC STOP
180623425054 6-23 04:04 S KERNAN BLVD AND ATLANTIC BLVD 16 ROAD OBSTRUCTION
180623425058 6-23 04:03 600 CHESTNUT ST 76 ASSIST OTHER AGENCY
180623425032 6-23 04:02 400 S MCDUFF AVE 9 THEFT
180623425039 6-23 04:01 1200 DENAUD ST 2 22 DOMESTIC DISTURBANCE
180623425057 6-23 04:01 1500 GOLF FOREST DR 20 PROWLER
180623425056 6-23 04:01 600 W 8TH ST 73 DRUG INVESTIGATION
180623425050 6-23 04:00 7900 N GUERAD DR 13 SUSPICIOUS PERSON
180623425053 6-23 03:56 BEACH BLVD AND HODGES BLVD 76 ASSIST OTHER AGENCY
180623425025 6-23 03:54 SAN JOSE BLVD AND BAYMEADOWS RD 80 PROSTITUTION (ONLY)
180623425049 6-23 03:53 1800 W 45TH ST 63 DISPUTE
180623425033 6-23 03:49 600 ESTES RD 63 DISPUTE
180623424997 6-23 03:49 9400 WEXFORD RD 2288 DOMESTIC DISPUTE WITH/ASSAULT
180623425023 6-23 03:42 1400 LOGAN ST 2 22 DOMESTIC DISTURBANCE
180623425043 6-23 03:40 1200 LABELLE ST 12 RECKLESS DRIVER
180623424977 6-23 03:38 6200 DALTON SPRING CT 22 DOMESTIC
180623425013 6-23 03:38 1300 N BROAD ST 63 DISPUTE
180623425034 6-23 03:37 5200 COLLINS RD 13 SUSPICIOUS PERSON
180623425040 6-23 03:33 BAYMEADOWS RD AND SAN JOSE BLVD 13 SUSPICIOUS PERSON
180623425037 6-23 03:30 100 WATTS ST 1066 CANCEL
180623425031 6-23 03:24 900 NEW BERLIN RD 27 MENTALLY ILL PERSON
180623425002 6-23 03:23 1400 GROTHE ST 22 DOMESTIC
180623425027 6-23 03:22 3800 CAMPENERO CT 0 88J ARMED ASSAULT JUST OCCURRED
180623425028 6-23 03:22 BEACH BLVD AND S ST JOHNS BLUFF RD 1050 TRAFFIC STOP
180623425024 6-23 03:19 N I295 EXPWY AND N MAIN ST 16 ROAD OBSTRUCTION
180623425019 6-23 03:18 OAKLEAF PLANTATION PKWY AND ARGYLE FOREST BLVD 4 AUTO CRASH
180623424990 6-23 03:13 600 CASSAT AVE 63 DISPUTE
180623425017 6-23 03:12 W BEAVER ST AND EAVERSON ST 1050 TRAFFIC STOP
180623425012 6-23 03:05 9900 BAYMEADOWS RD 1 IMPAIRED/DRUNK DRIVER
180623424972 6-23 03:03 5800 ATLANTIC BLVD 63 DISPUTE
180623425008 6-23 03:01 100 WATTS ST 1066 CANCEL
180623425006 6-23 03:01 2400 JOHNSON AVE 76 ASSIST OTHER AGENCY
180623425009 6-23 03:00 3600 ST JOHNS AVE 22 DOMESTIC
180623424971 6-23 02:59 7000 PAUL HOWARD DR 22 DOMESTIC
180623424961 6-23 02:58 3300 ROSSELLE ST 63 DISPUTE
180623424900 6-23 02:54 1300 S LANE AVE 63 DISPUTE
180623424832 6-23 02:53 600 CHELSEA ST 14B VANDALISM BUSINESS
180623425005 6-23 02:53 ATLANTIC BLVD AND S KERNAN BLVD 1050 TRAFFIC STOP
180623425004 6-23 02:52 W BEAVER ST AND TYLER ST 27 MENTALLY ILL PERSON
180623424983 6-23 02:51 5000 CLEVELAND RD 22 DOMESTIC
180623425000 6-23 02:49 S EDGEWOOD AVE AND EDGEWOOD CT 1050 TRAFFIC STOP
180623424949 6-23 02:46 1500 S LANE AVE 63 DISPUTE
180623424995 6-23 02:43 J TURNER BUTLER BLVD AND S I295 EXPWY 76 ASSIST OTHER AGENCY
180623424993 6-23 02:43 10600 OLD ST AUGUSTINE RD 76 ASSIST OTHER AGENCY
180623424996 6-23 02:43 1200 E 10TH ST 2288 DOMESTIC DISPUTE WITH/ASSAULT
180623424991 6-23 02:40 10100 ARROWHEAD DR 5388 ASSAULT INVOLVING INJURY
180623424989 6-23 02:36 8400 BLANDING BLVD 3388 DISCHARGING FIREARM AT PERSON
180623424988 6-23 02:34 4200 ROOSEVELT BLVD 76 ASSIST OTHER AGENCY
180623424987 6-23 02:33 N I95 EXPWY AND OLD ST AUGUSTINE RD 4 53 TRAFFIC CRASH PERSON INJURED
180623424960 6-23 02:33 CASSAT AVE AND SAPPHO AVE 33 DISCHARGING OF FIREARM
180623424938 6-23 02:30 1400 GROTHE ST 22 DOMESTIC
180623424907 6-23 02:29 3000 TAMAYA BLVD 64 NOISE COMPLAINT
180623424973 6-23 02:26 200 E 45TH ST 1066 CANCEL
180623424979 6-23 02:25 5700 JUSTINA TER 33 DISCHARGING OF FIREARM
180623424968 6-23 02:24 7000 ST IVES CT 63 DISPUTE
180623424980 6-23 02:24 700 W UNION ST 1 IMPAIRED/DRUNK DRIVER
180623424922 6-23 02:24 11700 PALM LAKE DR 63 DISPUTE
180623424932 6-23 02:23 1100 W 8TH ST 27 MENTALLY ILL PERSON
180623424978 6-23 02:23 SAN JUAN AVE AND STIMSON ST 1050 TRAFFIC STOP
180623424970 6-23 02:22 13100 DUNN CREEK RD 13 SUSPICIOUS PERSON
180623424963 6-23 02:20 7700 JASPER AVE 63 DISPUTE
180623424957 6-23 02:17 3800 S UNIVERSITY BLVD 2288 DOMESTIC DISPUTE WITH/ASSAULT
180623424966 6-23 02:16 W 24TH ST AND WILSON ST 23I88 ROBBERY INDIVIDUAL W/ASSAULT
180623424967 6-23 02:16 4600 FRIDEN DR 22 DOMESTIC
180623424965 6-23 02:13 5500 AGRA CT 19 ANIMAL INVESTIGATION
180623424962 6-23 02:13 4500 SAN JUAN AVE 76 ASSIST OTHER AGENCY
180623424952 6-23 02:09 1100 W 8TH ST 13 SUSPICIOUS PERSON
180623424959 6-23 02:08 8200 W GATE PKWY 63 DISPUTE
180623424958 6-23 02:07 13800 BEACH BLVD 63 DISPUTE
180623424956 6-23 02:05 8100 OKLAHOMA ST 76 ASSIST OTHER AGENCY
180623424954 6-23 02:03 2000 JAMMES RD 33 DISCHARGING OF FIREARM
180623424870 6-23 02:03 100 W UNION ST 63 DISPUTE
180623424928 6-23 02:03 700 PORT WINE LN 64 NOISE COMPLAINT
180623424950 6-23 02:02 1600 S PEACHTREE CIR 13 SUSPICIOUS PERSON
180623424937 6-23 02:02 W WINTERWOOD CIR AND WINTERWOOD LN 64 NOISE COMPLAINT
180623424942 6-23 01:59 EFFEE ST AND W 26TH ST 90 FIREWORKS
180623424939 6-23 01:59 5400 GOLFBROOK DR 33 DISCHARGING OF FIREARM
180623424919 6-23 01:58 9000 WESTERN LAKE DR 64 NOISE COMPLAINT
180622424743 6-23 01:58 13700 HERONS LANDING WAY 63 DISPUTE
180622424674 6-23 01:58 3600 S KERNAN BLVD 64 NOISE COMPLAINT
180623424947 6-23 01:56 4300 PHILIPS HWY 61 FIGHT
180623424929 6-23 01:55 6300 KIMBERLY LN 1066 CANCEL
180623424945 6-23 01:54 ATLANTIC BLVD AND MONUMENT RD 1050 TRAFFIC STOP
180623424935 6-23 01:54 4700 WALGREEN RD 76 ASSIST OTHER AGENCY
180623424944 6-23 01:54 1300 N MAIN ST 63 DISPUTE
180623424943 6-23 01:51 SOUTHSIDE SERVICE RD AND DOOLITTLE RD 1050 TRAFFIC STOP
180623424854 6-23 01:51 3500 S ST JOHNS BLUFF RD 14 VANDALISM
180623424888 6-23 01:48 10400 MC GIRTS CREEK DR 2288 DOMESTIC DISPUTE WITH/ASSAULT
180623424936 6-23 01:47 10500 FT CAROLINE RD 1050 TRAFFIC STOP
180622424750 6-23 01:46 6600 SPRING FLOWER CT 64 NOISE COMPLAINT
180623424799 6-23 01:46 9100 SAN JOSE BLVD 22 DOMESTIC
180623424930 6-23 01:45 4300 RAINER RD 33 DISCHARGING OF FIREARM
180623424931 6-23 01:45 9000 SAN JOSE BLVD 63 DISPUTE
180623424917 6-23 01:44 2600 W 1ST ST 0 88 ARMED ASSAULT
180623424920 6-23 01:42 BEACH BLVD AND CORTEZ RD 12 RECKLESS DRIVER
180623424910 6-23 01:41 BUNCOME RD AND E EVE DR 27 MENTALLY ILL PERSON
180623424894 6-23 01:40 4700 HERTA RD 63 DISPUTE
180623424904 6-23 01:40 1400 W 9TH ST 0 63 ARMED DISPUTE
180623424889 6-23 01:40 W BEAVER ST AND N MCDUFF AVE 63 DISPUTE
180623424921 6-23 01:38 900 N ARLINGTON RD 73 DRUG INVESTIGATION
180623424906 6-23 01:36 W 9TH ST AND FAIRFAX ST 0 13 ARMED SUSPICIOUS PERSON
180623424886 6-23 01:34 1300 MARSH GRASS CT 21R BURGLARY RESIDENCE
180623424916 6-23 01:34 7000 WAKEFIELD AVE 2288 DOMESTIC DISPUTE WITH/ASSAULT
180622424757 6-23 01:32 1500 S LANE AVE 21R BURGLARY RESIDENCE
180623424855 6-23 01:30 7800 WHITEHAVEN CT 64 NOISE COMPLAINT
180623424912 6-23 01:30 1000 W 24TH ST 0 88P ARMED ASSAULT IN PROGRESS
180623424914 6-23 01:30 MORTON ST AND ST AUGUSTINE RD 1050 TRAFFIC STOP
180623424902 6-23 01:29 900 N EDGEWOOD AVE 13 SUSPICIOUS PERSON
180623424850 6-23 01:28 3100 SEDONA TRL 14 VANDALISM
180623424892 6-23 01:27 4500 LEXINGTON AVE 61 FIGHT
180623424909 6-23 01:26 6600 S IRALOU RD 21R BURGLARY RESIDENCE
180623424908 6-23 01:26 3000 W COBBLEWOOD LN 1050 TRAFFIC STOP
180623424871 6-23 01:24 6700 TOWNSEND RD 2 22 DOMESTIC DISTURBANCE
180623424903 6-23 01:23 13300 BEACH BLVD 1050 TRAFFIC STOP
180623424836 6-23 01:23 400 E BAY ST 54 ILLEGALLY PARKED CAR
180623424897 6-23 01:23 4200 W SHERMAN HILLS PKWY 13 SUSPICIOUS PERSON
180623424847 6-23 01:20 2300 LEON RD 63 DISPUTE
180623424891 6-23 01:19 6300 SAN JUAN AVE 76 ASSIST OTHER AGENCY
180623424863 6-23 01:18 1900 W 26TH ST 63 DISPUTE
180623424877 6-23 01:14 CHIMNEY OAK DR AND STAGHORN RD 13 SUSPICIOUS PERSON
180623424860 6-23 01:13 E BAY ST AND LAFAYETTE ST 2 63 DISPUTE IMPAIRED/INTOXICATED
180623424882 6-23 01:09 COMMONWEALTH AVE AND COMMONWEALTH CENTER DR 1050 TRAFFIC STOP
180623424879 6-23 01:08 4600 REDWOOD AVE 21RP BURGLARY RESIDENCE IN PROGRESS
180623424865 6-23 01:03 1200 E 10TH ST 63 DISPUTE
180623424869 6-23 01:01 2900 W 1ST ST 0 63 ARMED DISPUTE
180623424866 6-23 01:00 6000 MERRILL RD 14B VANDALISM BUSINESS
180623424849 6-23 00:59 5600 HILLMAN DR 13 SUSPICIOUS PERSON
180623424812 6-23 00:58 1600 W 45TH ST 63 DISPUTE
180623424801 6-23 00:58 1600 W 45TH ST 22 DOMESTIC
180623424838 6-23 00:58 7900 ORIOLE ST 21C BURGLARY CONVEYANCE
180623424857 6-23 00:57 8800 FIELDSIDE CT 13 SUSPICIOUS PERSON
180623424862 6-23 00:57 3100 EMERSON ST 88P ASSAULT IN PROGRESS
180623424817 6-23 00:55 5600 BARNHILL DR 2288 DOMESTIC DISPUTE WITH/ASSAULT
180623424859 6-23 00:55 400 N KERNAN BLVD 1050 TRAFFIC STOP
180623424858 6-23 00:54 N EDGEWOOD AVE AND HIBISCUS ST 1050 TRAFFIC STOP
180623424853 6-23 00:53 100 VERNIS AVE 2 22 DOMESTIC DISTURBANCE
180623424848 6-23 00:50 11900 BEACH BLVD 13 SUSPICIOUS PERSON
180623424843 6-23 00:48 8200 W PRINCETON SQUARE BLVD 76 ASSIST OTHER AGENCY
180623424845 6-23 00:48 NEW KINGS RD AND W 45TH ST 1050 TRAFFIC STOP
180623424842 6-23 00:47 400 CENTURY 21 DR 0 63 ARMED DISPUTE
180623424841 6-23 00:47 2400 E LINCOLN CT 63 DISPUTE
180623424814 6-23 00:47 7700 NORMANDY BLVD 13 SUSPICIOUS PERSON
180623424823 6-23 00:46 200 TRACER AVE 64 NOISE COMPLAINT
180623424835 6-23 00:43 W BAY ST AND JOHNSON ST 2288 DOMESTIC DISPUTE WITH/ASSAULT
180623424820 6-23 00:42 HARBOR VIEW DR AND LAURENS RD 63 DISPUTE
180622424751 6-23 00:40 5400 ROOSEVELT BLVD 50 FOUND/ABANDONED PROPERTY
180623424830 6-23 00:39 7400 POWERS AVE 1050 TRAFFIC STOP
180623424828 6-23 00:39 COMMONWEALTH AVE AND MCTYRE CT 13 SUSPICIOUS PERSON
180623424811 6-23 00:38 7900 E BAYMEADOWS RD 64 NOISE COMPLAINT
180623424804 6-23 00:38 10900 BURNT MILL RD 13 SUSPICIOUS PERSON
180623424825 6-23 00:37 W 7TH ST AND N MYRTLE AVE 1050 TRAFFIC STOP
180623424821 6-23 00:35 ATLANTIC BLVD AND SUNNYSIDE AVE 1050 TRAFFIC STOP
180623424816 6-23 00:32 W I10 EXPWY AND S MCDUFF AVE 3 HIT AND RUN CRASH
180622424739 6-23 00:31 100 N JULIA ST 6388 DISPUTE WITH ASSAULT
180623424791 6-23 00:31 7400 POWERS AVE 63 DISPUTE
180623424813 6-23 00:29 6900 WILEY RD 33 DISCHARGING OF FIREARM
180623424806 6-23 00:28 9800 WAYNESBORO AVE 63 DISPUTE
180623424805 6-23 00:27 W 36TH ST AND N MAIN ST 13 SUSPICIOUS PERSON
180623424797 6-23 00:27 7000 WAKEFIELD AVE 63 DISPUTE
180623424810 6-23 00:26 500 E ADAMS ST 76 ASSIST OTHER AGENCY
180623424800 6-23 00:24 7200 LEM TURNER RD 5388 ASSAULT INVOLVING INJURY
180623424807 6-23 00:23 BEACH BLVD AND ANNISTON RD 1050 TRAFFIC STOP
180623424802 6-23 00:22 KINGS RD AND N MYRTLE AVE 1050 TRAFFIC STOP
180623424785 6-23 00:21 N WASHINGTON ST AND E UNION ST 4 AUTO CRASH
180623424789 6-23 00:19 2200 W 13TH ST 22 DOMESTIC
180623424796 6-23 00:19 3500 CHASE AVE 0 63 ARMED DISPUTE
180623424781 6-23 00:18 2400 EMILY DR 63 DISPUTE
180623424794 6-23 00:16 EAVERSON ST AND KINGS RD 1050 TRAFFIC STOP
180623424793 6-23 00:16 S I95 EXPWY AND MARTIN LUTHER KING JR PKWY 1050 TRAFFIC STOP
180622424675 6-23 00:15 7300 BLANDING BLVD 64 NOISE COMPLAINT
180622424687 6-23 00:12 400 STARRATT RD 22 DOMESTIC
180623424790 6-23 00:11 MERRILL RD AND ROGERO RD 1050 TRAFFIC STOP
180623424788 6-23 00:10 S I95 EXPWY AND MARTIN LUTHER KING JR PKWY 1050 TRAFFIC STOP
180623424786 6-23 00:10 S I95 EXPWY AND J TURNER BUTLER BLVD 1050 TRAFFIC STOP
180623424783 6-23 00:08 KINGS RD AND BARNETT ST 1050 TRAFFIC STOP
180623424780 6-23 00:07 11400 N GLENN MOTTIN WAY 18 PERSON SHOT
180622424768 6-23 00:07 400 N SPRINGFIELD CT 14R VANDALISM RESIDENCE
180623424778 6-23 00:06 DUNN CREEK RD AND NEW BERLIN RD 12 RECKLESS DRIVER
180623424776 6-23 00:05 9900 OLD BAYMEADOWS RD 3 53 HIT AND RUN CRASH W/FIRE
180622424763 6-23 00:04 N OCEAN ST AND E STATE ST 1066 CANCEL
180622424734 6-23 00:04 1200 LABELLE ST 2 63 DISPUTE IMPAIRED/INTOXICATED
180623424777 6-23 00:04 7900 MERRILL RD 1050 TRAFFIC STOP
180622424769 6-23 00:03 5500 GOLFBROOK DR 13 SUSPICIOUS PERSON
180623424775 6-23 00:03 BEACH BLVD AND S ST JOHNS BLUFF RD 1050 TRAFFIC STOP
180623424774 6-23 00:02 MONCRIEF RD AND ROWE AVE 1050 TRAFFIC STOP
180622424755 6-23 00:01 3500 BLANDING BLVD 63 DISPUTE
180622424731 6-23 00:00 800 N DAVIS ST 1 4 CRASH W/IMPAIRED/DRUNK DRIVER
180622424666 6-22 23:59 6900 MORSE AVE 63 DISPUTE
180622424767 6-22 23:59 3800 S ST JOHNS BLUFF RD 63 DISPUTE
180622424764 6-22 23:57 W BEAVER ST AND N MCDUFF AVE 1050 TRAFFIC STOP
180622424762 6-22 23:56 1600 W 45TH ST 12 RECKLESS DRIVER
180622424759 6-22 23:55 3100 EMERSON ST 73 DRUG INVESTIGATION
180622424745 6-22 23:54 200 CHERRY RIDGE DR 13 SUSPICIOUS PERSON
180622424760 6-22 23:54 W 24TH ST AND CHASE AVE 1050 TRAFFIC STOP
180622424756 6-22 23:52 13000 CITY STATION DR 2 IMPAIRED/INTOXICATED
180622424758 6-22 23:51 W MONCRIEF RD AND OWEN AVE 1050 TRAFFIC STOP
180622424754 6-22 23:50 5500 BARKER ST 13 SUSPICIOUS PERSON
180622424753 6-22 23:48 E 19TH ST AND N LIBERTY ST 1050 TRAFFIC STOP
180622424749 6-22 23:45 KINGS RD AND N CANAL ST 1050 TRAFFIC STOP
180622424736 6-22 23:45 100 TROUT RIVER DR 22 DOMESTIC
180622424746 6-22 23:45 WILSON BLVD AND FIRESTONE RD 1050 TRAFFIC STOP
180622424732 6-22 23:44 2400 FOREST ST 6388 DISPUTE WITH ASSAULT
180622424738 6-22 23:43 11200 SAN JOSE BLVD 60 SUICIDE OR ATTEMPT
180622424698 6-22 23:42 5100 SHENANDOAH AVE 22 DOMESTIC
180622424737 6-22 23:41 KING ST AND POST ST 0 23IJ ARMED ROBBERY INDIVIDUAL JUST OCCURRED
180622424733 6-22 23:40 EMERSON ST AND ST AUGUSTINE RD 3 HIT AND RUN CRASH
180622424686 6-22 23:39 900 BERT RD 63 DISPUTE
180622424729 6-22 23:39 700 N MCDUFF AVE 1050 TRAFFIC STOP
180622424728 6-22 23:38 MARTIN LUTHER KING JR PKWY AND MONCRIEF RD 73 DRUG INVESTIGATION
180622424727 6-22 23:37 103/I295 1050 TRAFFIC STOP
180622424725 6-22 23:37 N I295 EXPWY AND BEACH BLVD 1050 TRAFFIC STOP
180622424724 6-22 23:37 FT CAROLINE RD AND GURLEY RD 1050 TRAFFIC STOP
180622424720 6-22 23:37 4200 W MONCRIEF RD 5388 ASSAULT INVOLVING INJURY
180622424723 6-22 23:36 LA MOYA AVE AND CONFEDERATE OAKS DR 1050 TRAFFIC STOP
180622424722 6-22 23:36 20/DIV 1050 TRAFFIC STOP
180622424716 6-22 23:34 9800 WAYNESBORO AVE 2 63 DISPUTE IMPAIRED/INTOXICATED
180622424701 6-22 23:33 1000 HOOD AVE 63 DISPUTE
180622424714 6-22 23:33 1100 MARY SUSAN DR 76 ASSIST OTHER AGENCY
180622424566 6-22 23:31 11900 SHEFFIELD RD 64 NOISE COMPLAINT
180622424712 6-22 23:31 2700 HUFFMAN BLVD 13 SUSPICIOUS PERSON
180622424710 6-22 23:30 3600 S UNIVERSITY BLVD 27 MENTALLY ILL PERSON
180622424707 6-22 23:30 N MAIN ST AND ZOO PKWY 1 IMPAIRED/DRUNK DRIVER
180622424708 6-22 23:30 1700 MONUMENT RD 16 ROAD OBSTRUCTION
180622424683 6-22 23:29 10300 103RD ST 13 SUSPICIOUS PERSON
180622424681 6-22 23:29 2500 SRA1A HWY 63 DISPUTE
180622424704 6-22 23:29 FAIRFAX ST AND W 20TH ST 1050 TRAFFIC STOP
180622424702 6-22 23:29 N I95 EXPWY AND PHILIPS HWY 1050 TRAFFIC STOP
180622424700 6-22 23:28 MON/EDGE 1050 TRAFFIC STOP
180622424615 6-22 23:28 7600 INDIAN LAKES DR 73 DRUG INVESTIGATION
180622424699 6-22 23:28 3300 PHILIPS HWY 1050 TRAFFIC STOP
180622424635 6-22 23:28 700 PORT WINE LN 64 NOISE COMPLAINT
180622424609 6-22 23:27 6800 RIDGEVIEW AVE 19 ANIMAL INVESTIGATION
180622424697 6-22 23:27 500 OWENS RD 1050 TRAFFIC STOP
180622424696 6-22 23:27 SOUTEL DR AND PICKETT DR 1050 TRAFFIC STOP
180622424644 6-22 23:25 9400 KELLS RD 27 MENTALLY ILL PERSON
180622424678 6-22 23:25 6000 YOUNGERMAN CIR 2 63 DISPUTE IMPAIRED/INTOXICATED
180622424569 6-22 23:24 6500 SAN JUAN AVE 63 DISPUTE
180622424694 6-22 23:24 OLD PLANK RD AND JONES RD 1050 TRAFFIC STOP
180622424693 6-22 23:24 N I95 EXPWY AND N TROUT RIVER BRG 1050 TRAFFIC STOP
180622424690 6-22 23:24 4300 TIDEVIEW DR 13 SUSPICIOUS PERSON
180622424577 6-22 23:24 5200 NORWOOD AVE 1066 CANCEL
180622424679 6-22 23:23 FORBES ST AND KING ST 64 NOISE COMPLAINT
180622424691 6-22 23:23 10900 HARTS RD 1050 TRAFFIC STOP
180622424689 6-22 23:22 5800 MONCRIEF RD 1050 TRAFFIC STOP
180622424685 6-22 23:21 3100 GREEN ARBOR PL 64 NOISE COMPLAINT
180622424570 6-22 23:21 1200 LABELLE ST 63 DISPUTE
180622424620 6-22 23:19 13000 S CHETS CREEK DR 13 SUSPICIOUS PERSON
180622424655 6-22 23:19 3900 CONFEDERATE POINT RD 13 SUSPICIOUS PERSON
180622424663 6-22 23:18 14500 GOSSETT ST 1066 CANCEL
180622424682 6-22 23:18 200 W UNION ST 27 MENTALLY ILL PERSON
180622424680 6-22 23:17 BAYMEADOWS WAY AND PHILIPS HWY 1050 TRAFFIC STOP
180622424634 6-22 23:16 7800 S RENAULT DR 64 NOISE COMPLAINT
180622424676 6-22 23:16 7400 RICHARDSON RD 1050 TRAFFIC STOP
180622424519 6-22 23:16 2100 S LANE AVE 6388 DISPUTE WITH ASSAULT
180622424673 6-22 23:15 1700 W 14TH ST 33 DISCHARGING OF FIREARM
180622424669 6-22 23:14 9600 FLECHETTE AVE 22 DOMESTIC
180622424656 6-22 23:13 7700 HARE AVE 33 DISCHARGING OF FIREARM
180622424671 6-22 23:13 LEM TURNER RD AND N ARMSDALE RD 1050 TRAFFIC STOP
180622424661 6-22 23:13 1100 PAYNE CT 13 SUSPICIOUS PERSON
180622424670 6-22 23:13 TIMUQUANA RD AND CATOMA ST 1050 TRAFFIC STOP
180622424667 6-22 23:12 N I95 EXPWY AND LEM TURNER RD 1050 TRAFFIC STOP
180622424665 6-22 23:11 N I295 EXPWY AND J TURNER BUTLER BLVD 1050 TRAFFIC STOP
180622424664 6-22 23:11 WHEELEN/RICHARDSON 1050 TRAFFIC STOP
180622424660 6-22 23:10 OLD PLANKL/LAKE MARIETTA 1050 TRAFFIC STOP
180622424658 6-22 23:10 MERRILL CT AND E PINE SUMMIT DR 1050 TRAFFIC STOP
180622424653 6-22 23:09 3100 W 6TH ST 9P THEFT IN PROGRESS
180622424595 6-22 23:09 2300 PHILIPS HWY 63 DISPUTE
180622424650 6-22 23:08 100 TROUT RIVER DR 63 DISPUTE
180622424654 6-22 23:08 8200 KONA AVE 13 SUSPICIOUS PERSON
180622424648 6-22 23:07 1600 W 45TH ST 22 DOMESTIC
180622424582 6-22 23:07 1400 PALM LN 64 NOISE COMPLAINT
180622424649 6-22 23:07 S I295 EXPWY AND PHILIPS HWY 1050 TRAFFIC STOP
180622424638 6-22 23:07 900 BUNKER HILL BLVD 61 FIGHT
180622424544 6-22 23:05 1700 BERMUDA RD 2 63 DISPUTE IMPAIRED/INTOXICATED
180622424606 6-22 23:05 700 CARRIAGE HILL DR 2 22 DOMESTIC DISTURBANCE
180622424645 6-22 23:05 900 BULLS BAY HWY 1050 TRAFFIC STOP
180622424641 6-22 23:05 AVALON ST AND CRESTWOOD ST 33 DISCHARGING OF FIREARM
180622424643 6-22 23:04 MONCRIEF RD AND W EDGEWOOD AVE 1050 TRAFFIC STOP
180622424642 6-22 23:03 MONCRIEF RD AND W EDGEWOOD AVE 1050 TRAFFIC STOP
180622424483 6-22 23:03 6900 MORSE AVE 19 ANIMAL INVESTIGATION
180622424627 6-22 23:03 BENTON ST AND DUVAL STATION RD 12 RECKLESS DRIVER
180622424639 6-22 23:02 3500 EMERSON 1066 CANCEL
180622424637 6-22 23:01 1900 MELSON AVE 13 SUSPICIOUS PERSON
180622424636 6-22 23:01 J TURNER BUTLER BLVD AND SOUTHSIDE BLVD 1050 TRAFFIC STOP
180622424628 6-22 22:58 CAHOON RD AND HASTINGS ST 1050 TRAFFIC STOP
180622424589 6-22 22:58 200 W FORSYTH ST 14C VANDALISM CONVEYANCE
180622424619 6-22 22:58 3200 STUART ST 63 DISPUTE
180622424563 6-22 22:57 9800 GATE PKWY N 64 NOISE COMPLAINT
180622424625 6-22 22:57 N EDGEWOOD AVE AND W 20TH ST 1050 TRAFFIC STOP
180622424623 6-22 22:56 SHARBETH/TRISTAN 1050 TRAFFIC STOP
180622424622 6-22 22:56 OLD ST AUGUSTINE RD AND S I295 EXPWY 1050 TRAFFIC STOP
180622424621 6-22 22:56 W MONCRIEF RD AND E KEN KNIGHT DR 1050 TRAFFIC STOP
180622424618 6-22 22:55 OLD/ROOSEVELT/DAY 1050 TRAFFIC STOP
180622424586 6-22 22:54 4700 HERTA RD 63 DISPUTE
180622424616 6-22 22:53 107TH ST AND ORTEGA FARMS BLVD 33 DISCHARGING OF FIREARM
180622424614 6-22 22:52 S BARNES RD AND SCOTTY DR 1050 TRAFFIC STOP
180622424613 6-22 22:52 SAN JUAN AVE AND RETAW ST 1050 TRAFFIC STOP
180622424596 6-22 22:52 4600 ALPHA AVE 1066 CANCEL
180622424592 6-22 22:51 11000 OLD ST AUGUSTINE RD 64 NOISE COMPLAINT
180622424601 6-22 22:51 8200 KONA AVE 13 SUSPICIOUS PERSON
180622424607 6-22 22:50 N BROOKVIEW DR AND N LIGHTHOUSE RD 2 63 DISPUTE IMPAIRED/INTOXICATED
180622424605 6-22 22:50 9800 WAYNESBORO AVE 2 22 DOMESTIC DISTURBANCE
180622424602 6-22 22:48 5800 PAVILION DR 57 PERSON CALLING FOR HELP
180622424557 6-22 22:48 11500 CORAL RIDGE AVE 2 63 DISPUTE IMPAIRED/INTOXICATED
180622424604 6-22 22:48 MECASIN ST AND N EDGEWOOD AVE 1050 TRAFFIC STOP
180622424603 6-22 22:47 BAYMEADOWS RD AND BAYMEADOWS WAY 1050 TRAFFIC STOP
180622424600 6-22 22:47 4500 SOUTHSIDE BLVD 1050 TRAFFIC STOP
180622424598 6-22 22:46 OSA/PATT 1050 TRAFFIC STOP
180622424591 6-22 22:45 N I295 EXPWY AND N MAIN ST 96 ASSIST MOTORIST
180622424571 6-22 22:44 NORMANDY BLVD AND S I295 EXPWY 1066 CANCEL
180622424593 6-22 22:44 1700 W 14TH ST 90 FIREWORKS
180622424588 6-22 22:42 2200 KINGS AVE 63 DISPUTE
180622424590 6-22 22:41 LEM TURNER RD AND LILA ST 13 SUSPICIOUS PERSON
180622424541 6-22 22:41 10600 LONE STAR RD 64 NOISE COMPLAINT
180622424585 6-22 22:41 5200 TIMUQUANA RD 90 FIREWORKS
180622424559 6-22 22:40 7000 S OLD KINGS RD 63 DISPUTE
180622424587 6-22 22:39 DUNN AVE AND MONACO DR 1050 TRAFFIC STOP
180622424549 6-22 22:39 3700 TOLEDO RD 64 NOISE COMPLAINT
180622424527 6-22 22:39 1700 HODGES BLVD 13 SUSPICIOUS PERSON
180622424564 6-22 22:38 4300 CONFEDERATE POINT RD 33 DISCHARGING OF FIREARM
180622424584 6-22 22:38 8400 W GATE PKWY 1050 TRAFFIC STOP
180622424583 6-22 22:37 W UNIVERSITY BLVD AND POWERS AVE 1050 TRAFFIC STOP
180622424581 6-22 22:36 3800 PHILIPS HWY 1050 TRAFFIC STOP
180622424533 6-22 22:36 4000 ST JOHNS AVE 13 SUSPICIOUS PERSON
180622424579 6-22 22:35 W BEAVER ST AND WESTBROOK RD 1050 TRAFFIC STOP
180622424576 6-22 22:34 J TURNER BUTLER BLVD AND SOUTHSIDE BLVD 1050 TRAFFIC STOP
180622424574 6-22 22:33 PHI/UNI 1050 TRAFFIC STOP
180622424551 6-22 22:33 3300 SILVER ST 21C BURGLARY CONVEYANCE
180622424572 6-22 22:33 N LANE AVE AND COMMONWEALTH AVE 1050 TRAFFIC STOP
180622424568 6-22 22:32 200 BAISDEN RD 60 SUICIDE OR ATTEMPT
180622424550 6-22 22:32 2100 E WILLESDON DR 63 DISPUTE
180622424553 6-22 22:32 16100 W RESSIE RD 2288 DOMESTIC DISPUTE WITH/ASSAULT
180622424538 6-22 22:29 3800 S SAN PABLO RD 64 NOISE COMPLAINT
180622424529 6-22 22:29 2400 COTILLION RD 13 SUSPICIOUS PERSON
180622424560 6-22 22:29 3500 EMERSON ST 73 DRUG INVESTIGATION
180622424554 6-22 22:28 W 22ND ST AND MONCRIEF RD 33 DISCHARGING OF FIREARM
180622424556 6-22 22:27 W BEAVER ST AND BAKER AVE 1050 TRAFFIC STOP
180622424555 6-22 22:27 W BEAVER ST AND JIM WRIGHT RD 1050 TRAFFIC STOP
180622424543 6-22 22:25 11000 HARTS RD 63 DISPUTE
180622424353 6-22 22:25 4800 REDSTONE DR 63 DISPUTE
180622424479 6-22 22:24 6700 103RD ST 0 63 ARMED DISPUTE
180622424545 6-22 22:23 4400 PHILIPS HWY 1050 TRAFFIC STOP
180622424530 6-22 22:22 800 PRUDENTIAL DR 22 DOMESTIC
180622424540 6-22 22:20 S LANE AVE AND STUART AVE 1050 TRAFFIC STOP
180622424531 6-22 22:20 4500 SAN JUAN AVE 2 63 DISPUTE IMPAIRED/INTOXICATED
180622424536 6-22 22:19 DUNN AVE AND BISCAYNE BLVD 1050 TRAFFIC STOP
180622424532 6-22 22:18 3200 PHIL 1050 TRAFFIC STOP
180622424525 6-22 22:15 14000 N LA LAUNA CIR 60 SUICIDE OR ATTEMPT
180622424524 6-22 22:15 14900 WALDEN SPRINGS WAY 1 IMPAIRED/DRUNK DRIVER
180622424430 6-22 22:14 4800 YELLOW WATER RD 63 DISPUTE
180622424526 6-22 22:14 2800 UNIVERSITY BLVD 1050 TRAFFIC STOP
180622424523 6-22 22:13 N I295 EXPWY AND OLD ST AUGUSTINE RD 5388 ASSAULT INVOLVING INJURY
180622424522 6-22 22:13 100 E 18TH ST 2 63 DISPUTE IMPAIRED/INTOXICATED
180622424517 6-22 22:12 9300 103RD ST 60 SUICIDE OR ATTEMPT
180622424520 6-22 22:12 S I95 EXPWY AND OLD ST AUGUSTINE RD 61 FIGHT
180622424515 6-22 22:11 W 11TH ST AND ALMEDA ST 64 NOISE COMPLAINT
180622424518 6-22 22:10 W UNIVERSITY BLVD AND POWERS AVE 1050 TRAFFIC STOP
180622424514 6-22 22:10 9000 W WINDING VINE DR 76 ASSIST OTHER AGENCY
180622424512 6-22 22:09 400 CENTURY 21 DR 9 THEFT
180622424511 6-22 22:08 OSA/PLUMMER 1050 TRAFFIC STOP
180622424510 6-22 22:08 N I95 EXPWY AND ATLANTIC BLVD 1050 TRAFFIC STOP
180622424509 6-22 22:08 4500 CAPPER RD 1050 TRAFFIC STOP
180622424508 6-22 22:07 S I95 EXPWY AND BAYMEADOWS RD 4 AUTO CRASH
180622424356 6-22 22:07 5800 MORSE AVE 73 DRUG INVESTIGATION
180622424490 6-22 22:06 1500 W 22ND ST 2288 DOMESTIC DISPUTE WITH/ASSAULT
180622424504 6-22 22:04 W 22ND ST AND MONCRIEF RD 33 DISCHARGING OF FIREARM
180622424501 6-22 22:03 5800 SAN JUAN AVE 22 DOMESTIC
180622424505 6-22 22:03 N MYRTLE AVE AND KINGS RD 1050 TRAFFIC STOP
180622424443 6-22 22:02 12200 WINTERSET CT 64 NOISE COMPLAINT
180622424500 6-22 22:02 800 FRANKLIN ST 13 SUSPICIOUS PERSON
180622424503 6-22 22:01 1200 DUNN AVE 1050 TRAFFIC STOP
180622424497 6-22 22:01 10200 HARWOOD DR 63 DISPUTE
180622424498 6-22 22:00 BEACH BLVD AND S I295 EXPWY 96 ASSIST MOTORIST
180622424495 6-22 22:00 3900 BLANDING BLVD 0 13 ARMED SUSPICIOUS PERSON
180622424491 6-22 21:58 3900 CONFEDERATE POINT RD 0 13 ARMED SUSPICIOUS PERSON
180622424485 6-22 21:57 SEMINARY ST AND N COLLEGE CIR 64 NOISE COMPLAINT
180622424489 6-22 21:57 S I95 EXPWY AND W UNIVERSITY BLVD 1050 TRAFFIC STOP
180622424410 6-22 21:56 E MONROE ST AND PALMETTO ST 4 AUTO CRASH
180622424487 6-22 21:55 CANNON ST AND CAHOON RD 1050 TRAFFIC STOP
180622424459 6-22 21:55 400 PECAN PARK RD 2 IMPAIRED/INTOXICATED
180622424484 6-22 21:53 DUNN AVE AND N WINGATE RD 1050 TRAFFIC STOP
180622424445 6-22 21:53 800 DUNN AVE 63 DISPUTE
180622424481 6-22 21:52 600 IVA PL 50 FOUND/ABANDONED PROPERTY
180622424480 6-22 21:52 GATE PKWY AND TOWN CENTER PKWY 3 HIT AND RUN CRASH
180622424477 6-22 21:51 GALVESTON AVE AND N BOWLAN ST 1050 TRAFFIC STOP
180622424476 6-22 21:50 12600 PHILIPS HWY 1066 CANCEL
180622424475 6-22 21:49 BEACH BLVD AND CENTRAL PKWY 1050 TRAFFIC STOP
180622424474 6-22 21:49 W BEAVER ST AND N MYRTLE AVE 1050 TRAFFIC STOP
180622424462 6-22 21:49 3400 TOWNSEND BLVD 54 ILLEGALLY PARKED CAR
180622424453 6-22 21:49 10500 BRIGHTMAN BLVD 4 AUTO CRASH
180622424472 6-22 21:48 103RD ST AND JAMMES RD 4 53 TRAFFIC CRASH PERSON INJURED
180622424470 6-22 21:47 DUNN AVE AND LEM TURNER RD 1050 TRAFFIC STOP
180622424468 6-22 21:46 PHILIPS HWY AND REBA AVE 13 SUSPICIOUS PERSON
180622424467 6-22 21:45 LAMAR SHAW RD AND CHICORA DR 64 NOISE COMPLAINT
180622424358 6-22 21:45 N EDGEWOOD AVE AND OLD KINGS RD 4 AUTO CRASH
180622424464 6-22 21:44 N MAIN ST AND MAX LEGGETT PKWY 16 ROAD OBSTRUCTION
180622424463 6-22 21:44 4400 N SWILCAN BRIDGE LN 1066 CANCEL
180622424439 6-22 21:42 W 45TH ST AND AVENUE B 0 13 ARMED SUSPICIOUS PERSON
180622424461 6-22 21:42 DUNN AVE AND BISCAYNE BLVD 1050 TRAFFIC STOP
180622424458 6-22 21:41 6400 ARGYLE FOREST BLVD 76 ASSIST OTHER AGENCY
180622424460 6-22 21:41 NORWOOD/I95 1050 TRAFFIC STOP
180622424436 6-22 21:40 4200 ROOSEVELT BLVD 2 63 DISPUTE IMPAIRED/INTOXICATED
180622424448 6-22 21:40 1200 LAKE FOREST BLVD 4 AUTO CRASH
180622424435 6-22 21:40 900 BUNKER HILL BLVD 63 DISPUTE
180622424455 6-22 21:39 SAN JOSE BLVD AND SAN BERNADO DR 1050 TRAFFIC STOP
180622424454 6-22 21:39 4300 LOSCO RD 13 SUSPICIOUS PERSON
180622424447 6-22 21:37 DUNN AVE AND BISCAYNE BLVD 1050 TRAFFIC STOP
180622424446 6-22 21:36 MONCRIEF RD AND W 28TH ST 1050 TRAFFIC STOP
180622424444 6-22 21:35 8600 BEACH BLVD 1050 TRAFFIC STOP
180622424442 6-22 21:35 2400 FOREST ST 63 DISPUTE
180622424425 6-22 21:34 9500 S PRINCETON SQUARE BLVD 90 FIREWORKS
180622424415 6-22 21:34 6300 YOUNGERMAN CIR 63 DISPUTE
180622424432 6-22 21:33 9400 S PRINCETON SQUARE BLVD 33 DISCHARGING OF FIREARM
180622424431 6-22 21:33 4800 TOWN CENTER PKWY 3 HIT AND RUN CRASH
180622424441 6-22 21:32 EMERSON ST AND GRANT RD 13 SUSPICIOUS PERSON
180622424440 6-22 21:32 1300 W BEAV 1050 TRAFFIC STOP
180622424438 6-22 21:31 DUNN AVE AND E BRIARCLIFF RD 1050 TRAFFIC STOP
180622424437 6-22 21:31 9400 ATLANTIC BLVD 1050 TRAFFIC STOP
180622424429 6-22 21:31 W 1ST ST AND MELSON AVE 0 63 ARMED DISPUTE
180622424433 6-22 21:30 SOUTHSIDE BLVD AND A C SKINNER PKWY 1050 TRAFFIC STOP
180622424428 6-22 21:29 LENOX AVE AND LUNA ST 1066 CANCEL
180622424354 6-22 21:28 PARK ST AND KING ST 73 DRUG INVESTIGATION
180622424386 6-22 21:27 4000 EMERSON ST 22 DOMESTIC
180622424427 6-22 21:27 BAYMEADOWS RD AND PROMINENCE PKWY 1050 TRAFFIC STOP
180622424420 6-22 21:25 14000 N LA LAUNA CIR 0 63 ARMED DISPUTE
180622424423 6-22 21:25 3300 PHILIPS HWY 13 SUSPICIOUS PERSON
180622424402 6-22 21:23 HECKSCHER DR AND FT GEORGE RD 13 SUSPICIOUS PERSON
180622424418 6-22 21:23 MONCRIEF RD AND W 31ST ST 1050 TRAFFIC STOP
180622424349 6-22 21:23 5700 CEDAR OAKS DR 63 DISPUTE
180622424355 6-22 21:22 9600 STANFORD BRIDGE DR 63 DISPUTE
180622424412 6-22 21:21 KINGS RD AND N MYRTLE AVE 1050 TRAFFIC STOP
180622424411 6-22 21:21 10600 LEM TURNER RD 9 THEFT
180622424409 6-22 21:20 MONCRIEF RD AND W 32ND ST 1050 TRAFFIC STOP
180622424389 6-22 21:18 9700 APPLECROSS RD 1066 CANCEL
180622424404 6-22 21:17 1700 W 11TH ST 90 FIREWORKS
180622424365 6-22 21:14 8900 LOPEZ CT 22 DOMESTIC
180622424391 6-22 21:14 5200 SHAD RD 1066 CANCEL
180622424398 6-22 21:14 N MAIN ST AND SARA DR 1050 TRAFFIC STOP
180622424396 6-22 21:13 W 45TH ST AND MONCRIEF RD 13 SUSPICIOUS PERSON
180622424394 6-22 21:13 2900 S BELAIR RD 1050 TRAFFIC STOP
180622424393 6-22 21:13 STUART ST AND GOLFAIR BLVD 1050 TRAFFIC STOP
180622424392 6-22 21:12 3300 W 20TH ST 96 ASSIST MOTORIST
180622424390 6-22 21:11 SPRING GROVE AVE AND W 33RD ST 1050 TRAFFIC STOP
180622424326 6-22 21:10 W 44TH ST AND N MAIN ST 63 DISPUTE
180622424388 6-22 21:10 12700 ATLANTIC BLVD 1050 TRAFFIC STOP
180622424387 6-22 21:10 MONCRIEF RD AND W 45TH ST 1050 TRAFFIC STOP
180622424383 6-22 21:08 SAN JOSE BLVD AND HARTLEY RD 96 ASSIST MOTORIST
180622424362 6-22 21:07 4100 PHILIPS HWY 63 DISPUTE
180622424381 6-22 21:06 W BEAVER ST AND GARFIELD ST 1050 TRAFFIC STOP
180622424380 6-22 21:06 SS/PELMAN 1050 TRAFFIC STOP
180622424352 6-22 21:06 9500 S PRINCETON SQUARE BLVD 33 DISCHARGING OF FIREARM
180622424378 6-22 21:04 N ARLINGTON RD AND ARLINGTON XY SERVICE RD 96 ASSIST MOTORIST
180622424370 6-22 21:04 3700 TOLEDO RD 76 ASSIST OTHER AGENCY
180622424373 6-22 21:03 CHASE AVE AND W 31ST ST 1050 TRAFFIC STOP
180622424369 6-22 21:02 ROBINSON AVE AND W BEAVER ST 1050 TRAFFIC STOP
180622424368 6-22 21:02 600S 1050 TRAFFIC STOP
180622424367 6-22 21:02 BAYMEADOWS RD AND BAYMEADOWS WAY 1050 TRAFFIC STOP
180622424340 6-22 21:02 500 S LANE AVE 9J THEFT JUST OCCURRED
180622424363 6-22 21:01 1200 LAB 1050 TRAFFIC STOP
180622424361 6-22 21:01 BEDFORD RD AND EMERSON ST 1050 TRAFFIC STOP
180622424336 6-22 21:00 11200 N HUDDERFIELD CIR 2 22 DOMESTIC DISTURBANCE
180622424327 6-22 21:00 4500 SAN JUAN AVE 63 DISPUTE
180622424308 6-22 21:00 8200 S PATOU DR 28 DELIVER MESSAGE
180622424360 6-22 21:00 SS/MAYVAR 1050 TRAFFIC STOP
180622424357 6-22 21:00 1700 W 29TH ST 9 THEFT
180622424273 6-22 21:00 7900 S LIMOGES DR 19 ANIMAL INVESTIGATION
180622424260 6-22 20:59 400 DEMPER DR 88 ASSAULT
180622424235 6-22 20:59 3700 BLANDING BLVD 22 DOMESTIC
180622424347 6-22 20:58 1800 E 24TH ST 21R BURGLARY RESIDENCE
180622424344 6-22 20:57 3800 CROWN POINT RD 63 DISPUTE
180622424245 6-22 20:57 8400 CHERYL ANN LN 22 DOMESTIC
180622424351 6-22 20:56 6300 AVALON ST 13 SUSPICIOUS PERSON
180622424350 6-22 20:56 N I95 EXPWY AND DUNN AVE 1050 TRAFFIC STOP
180622424226 6-22 20:56 7500 103RD ST 27 MENTALLY ILL PERSON
180622424299 6-22 20:55 1500 STARRATT RD 63 DISPUTE
180622424315 6-22 20:55 1000 DETROIT ST 63 DISPUTE
180622424203 6-22 20:55 6400 ARGYLE FOREST BLVD 63 DISPUTE
180622424346 6-22 20:54 TARPON DR AND FT CAROLINE RD 1050 TRAFFIC STOP
180622424293 6-22 20:54 5500 FIRESTONE RD 0 63 ARMED DISPUTE
180622424345 6-22 20:53 2900 HODGES BLVD 1050 TRAFFIC STOP
180622424289 6-22 20:53 5500 FIRESTONE RD 0 63 ARMED DISPUTE
180622424343 6-22 20:53 KING ST AND ORION ST 1050 TRAFFIC STOP
180622424342 6-22 20:53 I295 RP AND PHILIPS HWY 1050 TRAFFIC STOP
180622424339 6-22 20:52 8700 NEWTON RD 2 22 DOMESTIC DISTURBANCE
180622424330 6-22 20:51 12700 ATLANTIC BLVD 63 DISPUTE
180622424332 6-22 20:51 10600 MONACO DR 6388 DISPUTE WITH ASSAULT
180622424335 6-22 20:50 PHILIPS HWY AND FORTUNE PKWY 1050 TRAFFIC STOP
180622424334 6-22 20:50 FOURAKRE/WILSON 1050 TRAFFIC STOP
180622424324 6-22 20:49 7600 S ALTUS DR 63 DISPUTE
180622424331 6-22 20:49 1100 LAKE SHORE 1050 TRAFFIC STOP
180622424321 6-22 20:48 S MYRTLE AVE AND FOREST ST 76 ASSIST OTHER AGENCY
180622424328 6-22 20:48 S MYRTLE AVE AND SPRUCE ST 76 ASSIST OTHER AGENCY
180622424309 6-22 20:48 9500 BAYMEADOWS RD 63 DISPUTE
180622424325 6-22 20:47 10800 HARTS RD 4 AUTO CRASH
180622424322 6-22 20:46 POWERS AVE AND MORTON ST 1050 TRAFFIC STOP
180622424279 6-22 20:46 W 67TH ST AND NORTH SHORE DR 54 ILLEGALLY PARKED CAR
180622424319 6-22 20:46 5900 OLD LANE AVE 76 ASSIST OTHER AGENCY
180622424318 6-22 20:45 HUNT ST AND THOMPSON ST 13 SUSPICIOUS PERSON
180622424317 6-22 20:45 MERRILL RD AND E LAUDERDALE DR 1050 TRAFFIC STOP
180622424314 6-22 20:44 2200 MELSON AVE 76 ASSIST OTHER AGENCY
180622424291 6-22 20:43 400 W 23RD ST 8 MISSING PERSON
180622424296 6-22 20:43 400 W 47TH ST 13 SUSPICIOUS PERSON
180622424216 6-22 20:43 6000 ARGYLE FOREST BLVD 3 HIT AND RUN CRASH
180622424229 6-22 20:42 5400 NORMANDY BLVD 14B VANDALISM BUSINESS
180622424306 6-22 20:40 ROOSEVELT/YACHT CLUB 1050 TRAFFIC STOP
180622424262 6-22 20:39 1100 N MARKET ST 2 63 DISPUTE IMPAIRED/INTOXICATED
180622424305 6-22 20:39 4100 BELFORT RD 1 IMPAIRED/DRUNK DRIVER
180622424304 6-22 20:37 4500 RIVER CITY DR 63 DISPUTE
180622424253 6-22 20:37 FIRESTONE RD AND WILSON BLVD 88 ASSAULT
180622424303 6-22 20:37 MONCRIEF RD AND W 29TH ST 73 DRUG INVESTIGATION
180622424295 6-22 20:36 N I295 EXPWY AND 103RD ST 76 ASSIST OTHER AGENCY
180622424301 6-22 20:36 BAYMEADOWS RD AND WESTERN WAY 1050 TRAFFIC STOP
180622424298 6-22 20:35 100 N DAMES POINT BRG 16 ROAD OBSTRUCTION
180622424290 6-22 20:33 8600 TRISTAN DR 4 AUTO CRASH
180622424292 6-22 20:33 PHILIPS HWY AND SHAD RD 1050 TRAFFIC STOP
180622424288 6-22 20:32 HARTS RD AND DUNN AVE 16 ROAD OBSTRUCTION
180622424287 6-22 20:31 LANE/NORMANDY 1050 TRAFFIC STOP
180622424283 6-22 20:30 RUTLEDGE AVE AND FERNANDINA AVE 1050 TRAFFIC STOP
180622424281 6-22 20:30 MONCRIEF RD AND RUTLEDGE AVE 1050 TRAFFIC STOP
180622424278 6-22 20:29 2600 N MAIN ST 68 CON GAME/FLIM FLAM
180622424268 6-22 20:28 3200 RICKY DR 22 DOMESTIC
180622424277 6-22 20:27 3300 PHILIPS HWY 1050 TRAFFIC STOP
180622424275 6-22 20:27 ATLANTIC BLVD AND SOUTHSIDE BLVD 60 SUICIDE OR ATTEMPT
180622424267 6-22 20:27 8200 PHILIPS HWY 1066 CANCEL
180622424200 6-22 20:26 700 CARRIAGE HILL DR 22 DOMESTIC
180622424272 6-22 20:25 6800 ROOSEVELT BLVD 1050 TRAFFIC STOP
180622424271 6-22 20:25 NORWOOD AVE AND ASHFORD ST 13 SUSPICIOUS PERSON
180622424266 6-22 20:24 SAN JOSE BLVD AND RUSTIC LN 1050 TRAFFIC STOP
180622424264 6-22 20:24 8700 MERSEYSIDE AVE 19 ANIMAL INVESTIGATION
180622424261 6-22 20:23 3600 E EVE DR 63 DISPUTE
180622424218 6-22 20:23 6400 SAN JUAN AVE 63 DISPUTE
180622424241 6-22 20:22 1900 BROADWAY AVE 3 HIT AND RUN CRASH
180622424147 6-22 20:22 9800 ATLANTIC BLVD 88 ASSAULT
180622424255 6-22 20:21 7700 LEM TURNER RD 63 DISPUTE
180622424257 6-22 20:20 WITSCHEN AVE AND W 25TH ST 13 SUSPICIOUS PERSON
180622424250 6-22 20:19 TIMUQUANA RD AND ROOSEVELT BLVD 12 RECKLESS DRIVER
180622424254 6-22 20:19 HARLOW BLVD AND BLANDING BLVD 1050 TRAFFIC STOP
180622424240 6-22 20:18 7500 W BAYMEADOWS CIR 95T FRAUD/FORGED (CHECK, ID, RX) (TELESERVE)
180622424252 6-22 20:18 1200 LAKE SHORE 1050 TRAFFIC STOP
180622424228 6-22 20:18 1000 HOOD AVE 10 VEHICLE THEFT
180622424247 6-22 20:16 6200 BURTON ST 13 SUSPICIOUS PERSON
180622424238 6-22 20:15 11400 BEACH BLVD 3 HIT AND RUN CRASH
180622424242 6-22 20:15 5900 FT CAROLINE RD 1066 CANCEL
180622424243 6-22 20:15 1500 W 16TH ST 19 ANIMAL INVESTIGATION
180622424232 6-22 20:14 8300 BAYMEADOWS RD 63 DISPUTE
180622424078 6-22 20:14 E 61ST ST AND SOUTHLAND ST 54 ILLEGALLY PARKED CAR
180622424172 6-22 20:13 12600 JULINGTON OAKS DR 95 FRAUD/FORGED (CHECK, ID, RX)
180622424231 6-22 20:12 10600 LONE STAR RD 64 NOISE COMPLAINT
180622424236 6-22 20:12 ATLANTIC BLVD AND REGENCY COURT AP 16 ROAD OBSTRUCTION
180622424222 6-22 20:11 5500 N UNIVERSITY CLUB BLVD 63 DISPUTE
180622424234 6-22 20:11 BONNEVAL RD AND J TURNER BUTLER BLVD 96 ASSIST MOTORIST
180622424188 6-22 20:10 1000 S US 301 HWY 4 AUTO CRASH
180622424221 6-22 20:10 100 ANDRESS ST 63 DISPUTE
180622424225 6-22 20:08 4200 HUNTINGTON FOREST BLVD 1050 TRAFFIC STOP
180622424213 6-22 20:08 2700 PARK ST 68 CON GAME/FLIM FLAM
180622424223 6-22 20:07 4500 SAN JUAN AVE 27 MENTALLY ILL PERSON
180622424196 6-22 20:07 2200 W EDGEWOOD AVE 63 DISPUTE
180622424219 6-22 20:05 6900 N SONORA DR 22 DOMESTIC
180622424217 6-22 20:05 3900 S UNIVERSITY BLVD 1066 CANCEL
180622424107 6-22 20:04 13900 BEACH BLVD 3 HIT AND RUN CRASH
180622424215 6-22 20:03 PARK/LANE 1050 TRAFFIC STOP
180622424214 6-22 20:03 300 GILLESPIE GARDENS DR 60 SUICIDE OR ATTEMPT
180622424208 6-22 20:02 W 23RD ST AND N MYRTLE AVE 4 63 CRASH INVOLVING DISPUTE
180622424211 6-22 20:02 8800 S OLD KINGS RD 76 ASSIST OTHER AGENCY
180622424204 6-22 20:02 W BEAVER ST AND N MCDUFF AVE 63 DISPUTE
180622424209 6-22 20:02 8900 BERRY AVE 2 63 DISPUTE IMPAIRED/INTOXICATED
180622424212 6-22 20:02 N I95 EXPWY AND W EDGEWOOD AVE 1050 TRAFFIC STOP
180622424180 6-22 20:01 100 E 44TH ST 76 ASSIST OTHER AGENCY
180622424139 6-22 20:00 14000 SPANISH POINT DR 63 DISPUTE
180622424020 6-22 20:00 GOLFAIR BLVD AND W 30TH ST 0 63 ARMED DISPUTE
180622424201 6-22 19:59 6700 103RD ST 5582 HOLDING ONE FOR SHOPLIFTING
180622424199 6-22 19:59 5900 FT CAROLINE RD 61 FIGHT
180622424202 6-22 19:58 100 COUGAR RD 76 ASSIST OTHER AGENCY
180622424183 6-22 19:58 6700 VAN GUNDY RD 13 SUSPICIOUS PERSON
180622424171 6-22 19:56 6300 BEACH BLVD 22 DOMESTIC
180622424195 6-22 19:55 5900 MERRILL RD 13 SUSPICIOUS PERSON
180622424197 6-22 19:55 8000 MCGLOTHLIN ST 63 DISPUTE
180622424177 6-22 19:54 11700 BEACH BLVD 19 ANIMAL INVESTIGATION
180622424193 6-22 19:54 S I295 EXPWY AND COMMONWEALTH AVE 1050 TRAFFIC STOP
180622424191 6-22 19:52 CAHOON/RAMONA 1050 TRAFFIC STOP
180622424186 6-22 19:52 9500 103RD ST 63 DISPUTE
180622424185 6-22 19:50 BARNES RD AND W UNIVERSITY BLVD 1050 TRAFFIC STOP
180622424178 6-22 19:46 S LANE AVE AND RAMONA BLVD 1050 TRAFFIC STOP
180622424168 6-22 19:46 NORMANDY BLVD AND S LANE AVE 68 CON GAME/FLIM FLAM
180622424167 6-22 19:45 DUNN AVE AND REGENCY DR 91 TRAFFIC LIGHT/RR CROSSING MALFUNCTION
180622424176 6-22 19:45 600 STOCKTON ST 13 SUSPICIOUS PERSON
180622424164 6-22 19:45 11100 SAN JOSE BLVD 68 CON GAME/FLIM FLAM
180622424151 6-22 19:43 ARGYLE FOREST BLVD AND OAKLEAF VILLAGE PKWY 3 HIT AND RUN CRASH
180622424173 6-22 19:43 LEM TURNER RD AND S I95 EXPWY 1050 TRAFFIC STOP
180622424160 6-22 19:42 700 N EDGEWOOD AVE 68 CON GAME/FLIM FLAM
180622424159 6-22 19:41 2800 MYRTIS RD 63 DISPUTE
180622424169 6-22 19:41 9600 E CARBONDALE DR 63 DISPUTE
180622424140 6-22 19:39 N OCEAN ST AND E UNION ST 73 DRUG INVESTIGATION
180622424157 6-22 19:39 5100 STEPP AVE 37 UNVERIFIED 911 CALL
180622424142 6-22 19:35 3100 ASHGROVE RD 63 DISPUTE
180622424133 6-22 19:35 1600 W 45TH ST 56 JUVENILE COMPLAINT
180622424163 6-22 19:35 INTERNATIONAL AIRPORT BLVD AND S AIRPORT SERVICE RD 13 SUSPICIOUS PERSON
180622424161 6-22 19:35 1200 LABELLE ST 76 ASSIST OTHER AGENCY
180622424126 6-22 19:34 BRADDOCK RD AND SANDLE DR 56 JUVENILE COMPLAINT
180622424162 6-22 19:34 W 8TH ST AND FRANCIS ST 2 IMPAIRED/INTOXICATED
180622424148 6-22 19:34 3200 UNIVERSITY BLVD 22 DOMESTIC
180622424158 6-22 19:33 10600 MONACO DR 63 DISPUTE
180622424154 6-22 19:32 ATLANTIC BLVD AND BEACON POINT DR 96 ASSIST MOTORIST
180622424153 6-22 19:31 200 QUEENS HARBOR BLVD 1050 TRAFFIC STOP
180622424152 6-22 19:31 2700 ADELE RD 63 DISPUTE
180622424150 6-22 19:31 500 W 25TH ST 56 JUVENILE COMPLAINT
180622424149 6-22 19:31 800 N MCDUFF AVE 1050 TRAFFIC STOP
180622424117 6-22 19:30 9400 REGENCY SQUARE BLVD 3T HIT AND RUN CRASH - TELESERVE
180622424096 6-22 19:30 MCCORMICK RD AND MT PLEASANT RD 91 TRAFFIC LIGHT/RR CROSSING MALFUNCTION
180622424109 6-22 19:30 1400 MANOTAK AVE 21CT BURGLARY CONVEYANCE TELESERVE
180622424127 6-22 19:29 1600 HIDDEN FOREST LN 28 DELIVER MESSAGE
180622424145 6-22 19:29 500 E ADAMS ST 50 FOUND/ABANDONED PROPERTY
180622424144 6-22 19:28 W 61ST ST AND N PEARL ST 1050 TRAFFIC STOP
180622424141 6-22 19:28 700 N MARKET ST 13 SUSPICIOUS PERSON
180622424121 6-22 19:27 5900 FT CAROLINE RD 63 DISPUTE
180622424137 6-22 19:27 E I10 EXPWY AND STOCKTON ST 4 53 TRAFFIC CRASH PERSON INJURED
180622424135 6-22 19:26 E I10 EXPWY AND STOCKTON ST 4 53 TRAFFIC CRASH PERSON INJURED
180622424080 6-22 19:25 HODGES BLVD AND BEACH BLVD 2 IMPAIRED/INTOXICATED
180622424085 6-22 19:25 4600 RIVER CITY DR 68 CON GAME/FLIM FLAM
180622424128 6-22 19:25 600 CENTURY 21 DR 4 AUTO CRASH
180622424083 6-22 19:25 1500 W 28TH ST 63 DISPUTE
180622424129 6-22 19:24 AVENUES AP AND PHILIPS HWY 16 ROAD OBSTRUCTION
180622423987 6-22 19:24 1200 RIVER BANK CT 63 DISPUTE
180622424132 6-22 19:24 MELSON AVE AND HARTRIDGE ST 1050 TRAFFIC STOP
180622424122 6-22 19:23 1800 CASSAT AVE 63 DISPUTE
180622424106 6-22 19:23 800 ALDERMAN RD 22 DOMESTIC
180622424079 6-22 19:22 3200 HOLLYBERRY LN 22 DOMESTIC
180622424114 6-22 19:21 8200 SOUTHSIDE BLVD 63 DISPUTE
180622424118 6-22 19:21 9600 CROSSHILL BLVD 6388 DISPUTE WITH ASSAULT
180622424120 6-22 19:21 2800 SOUTHSIDE BLVD 73 DRUG INVESTIGATION
180622423979 6-22 19:21 CENTURY 21 DR AND ATLANTIC BLVD 3 HIT AND RUN CRASH
180622424045 6-22 19:20 6100 TUSCONY CIR 63 DISPUTE
180622424116 6-22 19:19 7500 ARLINGTON EXPWY 0 22 DOMESTIC DISTURBANCE W/WEAPON
180622424113 6-22 19:19 1100 RANDOLPH ST 73 DRUG INVESTIGATION
180622424068 6-22 19:17 400 SUMMER ST 21R BURGLARY RESIDENCE
180622424110 6-22 19:16 1000 N EDGEWOOD AVE 63 DISPUTE
180622424111 6-22 19:16 1500 S LANE AVE 73 DRUG INVESTIGATION
180622424055 6-22 19:15 3300 OAK ST 9 THEFT
180622424099 6-22 19:15 4500 SAN JUAN AVE 68 CON GAME/FLIM FLAM
180622424091 6-22 19:14 NORMANDY BLVD AND S LANE AVE 16 ROAD OBSTRUCTION
180622424103 6-22 19:14 1300 PIPPIN ST 22 DOMESTIC
180622424104 6-22 19:13 2100 COROT DR 22 DOMESTIC
180622424086 6-22 19:12 8300 BAYMEADOWS RD 9 THEFT
180622423977 6-22 19:10 LORETTO RD AND PINE ACRES RD 64 NOISE COMPLAINT
180622424092 6-22 19:09 SOUTHSIDE BLVD AND TOUCHTON RD 16 ROAD OBSTRUCTION
180622424095 6-22 19:09 S I295 EXPWY AND GATE PKWY 13 SUSPICIOUS PERSON
180622424093 6-22 19:09 1200 STIMSON ST 1066 CANCEL
180622423947 6-22 19:09 1000 MELSON AVE 10 VEHICLE THEFT
180622424081 6-22 19:08 6000 VERDES RD 63 DISPUTE
180622424065 6-22 19:06 6000 ARGYLE FOREST BLVD 4 AUTO CRASH
180622424088 6-22 19:06 MONCRIEF RD AND ROWE AVE 3 HIT AND RUN CRASH
180622424066 6-22 19:06 5100 NORMANDY BLVD 2 63 DISPUTE IMPAIRED/INTOXICATED
180622424046 6-22 19:05 12100 LEM TURNER RD 9 THEFT
180622424074 6-22 19:04 4900 BIG ISLAND DR 9 THEFT
180622424073 6-22 19:03 4900 W MONCRIEF RD 2 63 DISPUTE IMPAIRED/INTOXICATED
180622424056 6-22 19:03 W MONCRIEF RD AND WINTON DR 13 SUSPICIOUS PERSON
180622423955 6-22 19:02 9600 ARGYLE FOREST BLVD 4 AUTO CRASH
180622424077 6-22 19:01 N CANAL ST AND MARTIN LUTHER KING JR PKWY 1050 TRAFFIC STOP
180622424076 6-22 19:01 BAYMEADOWS RD AND BAYMEADOWS WAY 1050 TRAFFIC STOP
180622424075 6-22 19:01 WILSON/LANE 1050 TRAFFIC STOP
180622424072 6-22 19:00 6900 WILSON 1050 TRAFFIC STOP
180622424070 6-22 19:00 3500 FITZGERALD ST 76 ASSIST OTHER AGENCY